Theta_e
357 357 354 346 323 322 314 316 326 324 323 330 334 332 328 332 326 317 344 349 352 354 358 361 365 364 365 366 363 364 364 364 364 363 363 362 361 363 362 362 362 361 361 362 361 361 358 358 357
340 347 349 336 317 311 312 319 320 326 330 334 334 332 330 327 338 339 341 351 354 356 357 358 364 364 364 364 364 364 364 364 364 363 362 359 358 360 360 360 361 361 361 360 360 359 358 358 357
343 348 331 323 317 311 314 321 324 329 334 333 331 336 332 330 339 338 346 352 354 355 356 358 365 365 364 363 363 364 363 362 363 363 362 360 357 359 359 359 359 359 359 359 360 359 358 358 357
344 341 334 317 315 322 321 326 327 330 333 334 334 329 337 341 338 343 348 351 351 354 357 362 364 364 364 364 363 364 363 363 362 361 360 359 356 359 359 358 359 358 359 360 361 359 358 358 358
344 335 321 316 317 321 327 328 330 328 330 332 333 328 330 339 343 346 347 350 350 352 357 359 366 366 365 365 363 363 363 362 362 361 360 358 358 360 360 360 359 359 361 360 360 359 358 358 358
330 328 316 310 319 325 330 331 329 330 331 332 331 330 330 339 341 344 348 349 352 354 357 358 363 364 363 362 363 363 363 361 362 361 359 358 357 360 359 360 358 357 357 357 357 358 359 358 358
329 319 317 318 320 324 330 334 328 329 329 331 335 327 332 335 340 344 347 351 353 356 356 356 357 361 364 363 364 362 362 361 362 359 358 357 358 359 358 360 360 359 357 356 356 357 358 359 358
328 322 316 319 319 321 333 335 335 333 329 339 338 325 325 334 344 347 349 350 351 353 352 352 353 354 354 355 362 362 361 360 359 359 357 357 354 357 359 357 360 358 357 356 355 357 358 359 356
337 316 312 318 320 324 334 330 335 340 335 336 337 334 336 340 342 342 343 343 347 349 350 352 352 351 350 352 356 360 360 359 359 357 357 351 346 346 351 357 359 357 359 357 357 357 357 358 356
324 315 318 327 327 328 333 331 332 330 332 332 334 337 340 340 339 338 337 338 340 342 345 350 350 351 350 355 352 351 352 350 350 348 348 351 347 345 351 356 358 357 355 356 354 355 359 358 352
326 317 324 330 331 335 331 330 335 328 323 331 332 334 337 338 338 337 338 340 340 342 344 347 349 350 350 352 350 350 349 348 348 346 345 348 349 350 349 350 349 349 356 352 354 352 353 352 352
322 327 328 334 335 332 332 332 328 330 329 336 338 338 337 337 336 337 337 339 340 341 344 346 349 349 350 350 350 349 348 347 347 347 346 347 348 347 349 349 349 347 346 348 347 351 353 351 351
324 330 326 329 328 332 333 331 329 328 335 336 337 338 336 336 337 338 338 341 340 340 343 345 348 348 349 349 349 348 348 346 345 345 346 346 345 346 347 342 347 346 345 344 346 346 346 348 351
329 327 324 327 326 331 329 328 329 328 334 332 333 332 335 337 337 337 338 338 339 341 342 345 346 347 347 347 348 348 347 346 346 346 344 343 347 346 344 345 347 345 346 346 348 344 336 336 339
326 320 319 321 326 323 331 325 325 330 331 329 329 330 334 338 337 337 339 339 339 340 344 344 346 347 346 346 346 346 346 346 344 346 343 344 347 346 344 344 347 346 346 348 348 345 338 335 342
321 318 309 319 324 326 327 312 326 331 328 326 327 330 336 334 336 338 339 339 339 342 342 346 349 347 347 345 345 345 345 343 342 343 345 344 350 348 345 345 343 345 347 349 347 338 340 341 345
310 305 311 316 325 327 323 316 325 330 327 324 326 327 331 330 332 337 340 340 340 342 343 342 345 344 344 345 344 344 344 343 342 343 344 345 346 347 343 343 344 344 346 345 348 344 342 343 341
300 305 312 313 321 323 321 319 325 329 329 327 325 327 329 327 331 336 340 341 341 341 342 342 342 343 343 342 342 342 343 344 344 344 345 345 341 345 345 345 343 343 344 345 346 344 345 343 341
304 303 304 318 324 321 319 319 321 327 328 326 323 325 329 330 329 334 337 339 341 341 340 340 340 339 340 337 336 339 341 342 341 344 346 343 344 346 344 344 341 342 342 343 346 346 339 338 340
303 301 302 314 324 319 317 318 323 326 326 327 325 325 327 328 328 332 335 338 340 340 340 340 340 337 338 337 337 340 339 341 342 342 344 346 344 346 345 339 338 342 342 343 344 344 340 337 332
304 298 302 303 314 321 311 309 317 322 324 326 325 328 328 328 327 330 334 336 340 339 341 341 340 338 336 338 338 340 342 339 338 341 342 344 348 348 343 339 339 340 341 341 340 339 339 331 331
293 306 306 306 301 296 305 293 310 314 316 320 319 323 326 327 329 331 334 335 339 340 343 342 341 339 336 336 336 338 337 334 336 338 343 343 348 345 341 340 343 341 339 339 338 352 340 333 330
301 307 306 307 301 297 300 298 301 312 311 316 321 325 329 328 330 330 334 336 339 342 343 342 341 340 337 336 336 338 334 332 333 337 338 340 345 344 341 341 340 341 342 343 339 349 341 338 334
308 304 301 300 297 291 298 300 299 308 313 316 321 327 327 329 330 331 333 337 338 344 343 342 341 341 341 341 338 339 334 331 335 337 336 338 344 348 341 338 337 344 345 349 349 348 347 345 343
301 293 288 289 289 290 296 299 301 312 316 319 319 322 327 328 329 330 331 335 337 340 342 341 341 340 343 343 341 341 335 334 337 339 340 338 342 343 340 345 343 346 347 348 351 349 347 346 344
298 294 288 285 286 291 299 296 302 314 319 320 321 322 325 325 327 331 333 335 337 339 342 342 340 339 341 343 342 343 344 344 341 338 340 341 342 343 345 344 347 348 349 347 347 347 346 347 347
298 294 296 290 291 289 293 300 310 315 315 319 319 323 328 328 327 330 334 334 338 338 342 343 341 341 342 345 343 342 342 343 342 339 339 343 345 350 350 348 351 349 349 348 346 348 345 347 346
301 301 292 288 287 286 292 297 300 310 314 318 318 321 320 321 326 330 334 334 339 339 342 344 344 343 343 346 345 344 344 345 345 341 338 342 343 344 345 347 348 348 348 347 345 347 345 345 345
297 294 293 291 291 287 287 292 308 312 316 318 320 323 320 323 325 331 334 335 339 340 341 342 344 344 344 346 346 346 345 345 344 345 345 342 339 344 342 342 342 339 343 349 346 345 345 347 344
300 297 292 289 288 290 290 293 307 314 317 321 322 322 323 324 330 332 333 335 337 339 340 342 343 345 346 346 346 346 346 346 344 344 345 344 336 342 346 345 344 345 346 346 346 346 347 344 344
Wind_Speed
3 2 1 3 6 5 0 4 6 10 9 4 10 10 8 9 1 3 10 12 16 12 10 12 12 12 12 14 13 12 12 12 11 12 11 12 13 13 12 12 12 10 10 10 10 10 9 6 4
2 3 1 2 5 4 2 1 15 12 4 13 10 8 9 4 7 12 8 15 16 12 8 9 13 13 13 13 13 12 12 11 11 11 10 10 9 11 10 10 10 9 9 9 8 7 6 5 3
4 4 3 4 3 3 5 9 17 12 10 3 6 8 4 3 12 3 12 16 15 12 9 9 15 14 15 13 12 11 12 11 11 10 9 9 7 8 9 9 8 9 8 9 9 8 6 5 4
2 3 4 5 3 3 4 8 14 6 13 8 13 9 5 5 7 10 17 17 13 12 10 13 16 15 15 14 12 12 12 11 10 9 8 8 6 7 10 9 9 8 9 10 9 8 7 6 6
1 2 4 3 2 5 7 9 10 5 6 8 4 4 3 3 14 18 18 15 15 11 9 11 14 14 14 14 13 12 11 10 9 9 9 8 8 9 10 10 9 8 9 9 8 8 7 5 5
4 1 4 3 3 6 7 11 12 3 13 13 11 7 2 11 20 15 16 14 13 14 11 11 15 15 14 13 12 11 10 10 9 9 8 8 6 8 8 9 8 7 7 7 8 8 7 6 7
2 3 1 1 3 4 5 4 2 1 9 7 14 5 5 7 9 12 13 12 12 11 10 8 8 12 14 13 13 12 11 9 9 7 9 7 7 7 7 8 8 7 6 6 7 8 7 8 6
4 4 4 2 1 3 2 1 2 4 3 15 16 6 8 5 11 14 13 11 10 8 6 6 6 5 5 6 12 11 10 9 8 8 8 7 6 7 6 4 6 5 5 6 5 7 7 8 4
3 5 3 2 3 3 3 2 1 10 9 5 1 10 11 13 13 13 12 7 8 6 7 6 6 6 5 5 7 10 9 9 9 8 9 5 2 2 3 2 3 4 6 5 4 6 7 6 5
4 4 6 5 4 4 2 5 4 5 8 7 12 14 15 15 13 13 9 9 9 8 8 8 6 6 5 4 3 5 4 4 5 5 5 3 2 2 2 4 3 3 2 3 4 5 7 6 1
7 3 5 1 4 6 4 7 4 8 2 7 20 17 13 13 13 13 11 14 13 10 7 8 8 7 7 5 3 3 3 3 3 5 5 3 2 2 1 2 3 2 5 2 3 3 1 4 2
6 3 0 1 3 4 3 4 2 3 5 13 15 13 12 11 12 13 10 8 10 10 8 10 7 8 8 4 3 4 3 3 3 3 5 2 2 0 1 2 2 2 3 2 2 2 4 5 3
6 3 2 5 10 1 6 4 4 2 4 10 11 13 12 11 12 9 8 9 6 7 8 8 7 7 6 6 4 4 4 3 4 3 4 3 2 2 2 1 2 3 3 2 3 3 3 3 1
5 6 5 4 3 3 6 2 2 6 5 7 9 7 11 14 13 9 9 10 9 7 8 7 7 7 6 6 6 5 4 4 4 4 4 4 3 2 1 3 3 3 2 1 2 2 0 0 2
9 1 5 4 5 2 7 2 9 7 7 7 9 11 17 16 11 15 15 12 10 7 6 8 7 6 6 6 5 5 4 4 4 3 5 4 3 3 4 3 4 4 3 5 2 3 3 3 3
4 4 4 3 6 5 7 9 12 7 12 11 11 7 11 13 18 13 14 10 9 10 9 9 8 7 6 6 5 4 5 4 4 3 3 6 3 4 4 3 3 2 4 3 3 4 3 2 1
2 2 7 5 11 4 8 8 8 9 3 9 8 6 15 8 9 14 15 13 11 11 10 7 7 7 7 6 5 5 6 4 4 4 3 4 5 5 5 3 2 2 2 2 2 2 1 3 1
6 5 2 6 8 11 9 15 4 13 15 16 6 6 4 6 14 14 15 12 10 10 8 8 6 7 7 5 4 3 3 3 4 4 3 6 4 5 6 4 3 2 3 3 3 1 1 1 1
8 8 10 7 9 12 16 15 9 15 13 9 8 9 11 6 8 14 15 14 12 10 10 10 9 7 6 3 3 3 4 3 2 3 6 7 5 4 5 3 3 1 2 1 2 0 4 4 3
8 9 7 5 8 12 7 16 6 18 12 13 12 12 15 14 6 13 17 15 15 13 12 10 9 8 6 3 3 3 3 2 3 2 4 7 7 6 5 5 5 5 4 3 1 2 3 3 3
16 6 6 7 1 7 3 3 1 2 5 6 7 10 13 19 11 14 16 17 15 14 13 11 11 10 7 6 3 2 3 3 2 1 3 5 7 6 5 6 4 5 3 1 2 2 3 4 2
5 6 6 4 4 3 4 6 5 6 12 7 9 12 13 14 12 12 18 17 17 15 13 11 11 11 8 7 4 4 4 4 4 3 2 5 6 6 5 5 3 4 3 1 2 1 3 4 4
11 7 6 3 1 3 5 3 5 3 11 17 14 12 14 16 16 16 21 20 16 16 14 12 11 9 9 7 6 5 3 2 2 2 3 3 5 7 8 7 4 4 3 1 3 3 6 2 2
5 2 7 6 4 3 7 6 6 8 20 7 9 13 12 16 18 19 16 18 17 15 14 13 13 10 11 10 8 7 7 6 3 3 3 4 4 5 7 5 5 4 4 5 5 4 4 3 2
4 8 5 5 6 7 7 2 10 10 13 12 16 13 14 10 14 16 17 18 18 19 17 14 14 11 11 12 11 8 8 7 7 5 4 5 2 3 6 7 7 5 6 4 4 4 4 4 3
6 10 8 5 3 8 2 7 9 15 13 6 10 11 6 6 5 15 19 16 19 19 18 16 15 13 10 12 11 8 8 5 4 5 3 4 4 5 6 7 6 7 6 4 3 2 2 3 5
6 4 9 6 1 2 3 8 9 5 4 6 12 7 6 4 8 11 17 17 19 19 19 18 16 14 13 13 10 9 7 7 6 6 4 2 4 4 5 6 7 6 5 6 5 3 4 2 2
9 4 1 2 3 5 5 7 6 6 7 9 12 11 9 11 15 14 18 17 18 20 17 17 16 16 15 13 12 9 9 7 6 5 7 6 4 2 3 5 7 6 5 6 5 4 3 2 3
2 2 1 5 6 7 2 8 7 11 6 12 13 20 17 14 14 15 18 19 19 17 18 16 14 14 13 12 11 10 9 8 6 6 5 6 5 6 6 5 5 5 5 6 5 6 5 4 4
7 8 3 6 7 4 6 9 8 12 13 16 18 18 13 6 12 18 18 19 18 18 17 17 16 14 13 13 11 10 9 7 7 6 7 7 7 7 6 6 6 7 6 5 6 6 5 6 5
Wind_Direction
238 185 199 17 61 99 131 328 293 314 337 349 71 87 95 35 26 160 144 147 136 143 160 162 164 152 151 137 139 131 133 135 139 135 134 130 129 131 140 144 147 152 146 147 150 159 179 211 182
337 227 27 22 83 102 298 274 273 272 304 97 65 65 50 77 63 118 109 138 137 143 148 149 154 155 151 146 145 143 140 138 141 139 140 133 134 139 144 146 153 150 152 156 159 166 179 198 193
349 284 83 94 111 157 181 207 247 271 257 174 109 84 79 80 125 107 130 134 136 140 143 158 155 156 155 155 155 148 147 150 147 147 142 137 135 147 148 154 150 142 146 138 149 160 169 188 203
337 356 40 80 55 132 196 216 231 281 113 104 121 77 79 154 130 139 138 136 139 141 149 156 157 161 157 155 154 156 154 156 150 145 143 142 145 157 153 144 141 142 139 142 151 156 164 182 198
59 44 52 78 42 311 252 246 275 299 81 89 103 89 58 65 120 137 141 145 142 147 154 155 158 155 155 155 159 162 161 154 146 150 151 161 163 156 142 140 136 139 134 135 152 154 170 191 209
7 81 45 358 86 244 260 236 244 32 115 115 92 98 75 135 137 151 147 150 149 150 156 163 164 162 164 161 164 162 166 158 168 169 160 156 155 139 133 133 131 138 141 150 170 168 184 202 231
174 76 133 225 329 190 213 211 90 314 126 150 143 105 142 144 158 149 151 140 145 151 152 157 165 170 168 168 166 170 160 153 162 161 153 156 145 136 143 153 143 154 147 172 186 186 193 217 221
135 112 340 341 347 274 227 95 351 352 5 122 138 153 179 186 134 118 126 135 145 150 148 151 160 155 158 164 170 166 162 152 148 149 153 153 146 159 160 121 142 147 162 184 197 215 202 229 215
133 67 229 281 292 234 228 145 8 54 70 47 329 123 129 127 117 113 122 130 142 157 156 167 165 167 171 175 179 173 164 152 145 153 154 140 150 86 357 226 185 157 179 176 191 224 218 230 236
102 146 191 184 266 206 143 108 356 71 81 72 92 113 129 136 136 139 149 158 167 173 166 174 173 171 176 183 188 137 147 118 130 139 109 103 55 287 319 350 152 191 123 173 202 234 238 239 163
182 119 196 356 174 134 120 127 220 150 68 177 151 161 158 152 155 157 167 173 179 173 168 177 180 173 171 184 150 132 119 129 131 142 128 107 96 333 356 54 57 23 44 335 334 283 209 240 142
98 38 38 330 350 118 149 111 141 185 200 172 165 166 166 166 164 172 174 173 167 170 171 184 181 170 171 155 153 139 136 138 139 158 112 111 85 141 54 96 112 72 6 354 287 257 228 230 239
92 133 79 304 354 18 124 160 197 252 197 177 156 169 186 193 178 181 168 173 167 170 164 179 159 162 162 162 157 138 159 151 141 161 135 146 140 212 154 113 87 92 56 35 290 282 167 183 85
158 147 168 161 351 238 135 148 100 243 193 198 187 195 202 203 190 166 162 174 176 163 167 156 161 162 155 167 164 159 151 161 154 161 166 167 124 184 60 5 69 65 47 200 257 241 252 206 110
165 41 291 165 140 241 114 113 236 215 185 235 222 226 194 195 183 176 179 178 174 165 161 145 151 159 171 168 158 142 144 155 157 169 176 193 158 199 82 56 15 25 316 271 238 159 179 179 174
168 56 15 284 140 237 149 259 237 198 170 225 245 205 194 198 178 183 179 172 171 156 168 152 157 152 149 155 148 141 163 158 185 175 181 194 163 132 108 73 2 356 311 285 140 186 147 104 284
354 238 213 286 171 218 173 255 234 160 151 236 241 273 170 178 171 182 176 176 168 158 158 148 139 150 146 147 131 145 158 161 191 187 188 155 114 136 135 114 342 16 33 3 261 107 293 101 360
269 260 249 216 197 214 204 245 215 154 194 204 195 135 142 181 189 183 175 174 165 151 145 138 139 143 139 126 122 129 144 179 179 204 166 124 153 180 145 117 93 19 79 53 310 275 197 62 124
255 267 269 212 179 188 218 232 203 182 196 218 168 175 164 225 188 179 169 165 157 144 142 148 142 157 134 133 137 137 162 173 170 185 141 143 162 176 116 119 144 160 108 47 247 319 74 42 63
255 241 283 232 178 182 215 241 184 183 195 206 196 187 184 195 206 160 159 154 161 159 161 152 155 156 151 154 158 152 146 171 181 171 156 154 180 213 125 165 190 169 138 124 82 104 166 156 204
272 260 281 268 274 185 117 333 344 284 283 223 220 189 191 189 194 162 164 161 160 163 166 162 162 161 161 176 129 97 94 76 91 183 156 187 194 200 201 198 209 116 99 30 324 17 164 135 334
237 242 232 297 80 211 136 279 241 221 245 233 233 206 202 202 190 168 168 172 167 171 166 160 164 162 164 171 163 161 172 154 198 178 146 173 190 181 198 232 233 126 132 160 301 307 179 109 141
240 233 253 262 233 31 327 92 264 72 251 236 234 201 205 200 190 178 177 173 170 167 168 165 163 171 158 173 175 179 154 159 172 179 179 164 191 193 201 195 209 212 197 206 244 258 153 131 151
273 338 40 42 84 360 249 150 273 189 226 236 232 204 204 191 188 188 176 171 170 169 166 166 166 180 167 173 181 183 176 174 158 184 205 231 171 193 207 212 220 209 223 197 180 158 153 191 224
136 59 353 347 358 231 311 162 238 236 237 202 220 199 208 194 181 184 177 171 168 172 171 172 170 178 183 176 181 179 181 192 193 181 206 191 193 188 198 190 206 215 208 215 150 167 170 155 176
217 149 159 216 209 270 315 258 256 229 212 168 218 82 86 228 213 186 183 173 171 173 173 177 176 177 179 181 182 178 176 190 197 180 190 186 177 218 221 190 188 200 188 193 196 207 237 217 165
229 170 186 132 168 17 240 284 299 81 31 208 195 129 107 205 245 207 187 178 176 175 177 177 181 185 183 183 177 179 185 189 204 195 187 199 238 198 220 206 180 191 198 197 201 203 241 257 262
162 172 112 4 157 275 291 274 239 88 171 179 178 171 171 205 205 191 189 183 183 179 174 178 184 183 185 180 182 181 186 189 195 174 186 190 210 222 215 158 155 179 200 214 195 211 225 222 285
352 257 113 127 142 176 228 271 225 195 163 144 173 176 197 242 216 190 183 182 185 171 175 176 181 182 185 187 182 176 190 189 190 191 197 175 206 211 188 179 170 198 214 219 209 221 230 217 269
181 204 136 126 271 233 162 264 253 174 191 169 176 184 209 242 178 172 173 177 178 176 174 177 176 181 188 186 182 182 179 182 192 199 208 181 194 204 209 187 192 203 214 200 214 217 227 223 241